EW3205 Weather Reports


time (UTC)temp
F
wind
direction
speed
knots
gust
knots
rain 1hr
in
rain 24hr
in
rain mn
in
humidity
%
barometer
mb
20260508221535 42 321 0.0 0.0 0.00 0.00 0.00 85 1024.4
20260508220105 43 321 0.0 0.0 0.00 0.00 0.00 84 1024.4
20260508214533 43 321 0.0 0.0 0.00 0.00 0.00 84 1024.4
20260508213035 44 321 0.0 0.0 0.00 0.00 0.00 84 1024.4
20260508211534 44 321 0.0 0.0 0.00 0.00 0.00 83 1024.4
20260508210034 44 321 0.0 0.0 0.00 0.00 0.00 81 1024.3
20260508204531 45 321 0.0 0.0 0.00 0.00 0.00 79 1024.1
20260508203026 45 321 0.0 0.0 0.00 0.00 0.00 77 1023.9
20260508201532 46 321 0.0 0.0 0.00 0.00 0.00 77 1023.7
20260508200025 47 321 0.0 0.0 0.00 0.00 0.00 75 1023.6
20260508194526 47 321 0.0 0.0 0.00 0.00 0.00 74 1023.4
20260508193026 49 321 0.0 0.0 0.00 0.00 0.00 71 1023.5
20260508191524 50 321 0.0 0.0 0.00 0.00 0.00 71 1023.4
20260508190027 51 321 0.0 0.9 0.00 0.00 0.00 70 1023.4
20260508184533 52 321 0.0 1.7 0.00 0.00 0.00 71 1023.3
20260508183022 53 321 0.0 0.9 0.00 0.00 0.00 70 1023.3
20260508181529 53 321 0.0 1.7 0.00 0.00 0.00 70 1023.3
20260508180022 55 315 0.0 0.9 0.00 0.00 0.00 63 1023.2
20260508174530 55 335 0.0 2.6 0.00 0.00 0.00 60 1023.1
20260508173021 56 341 0.9 2.6 0.00 0.00 0.00 58 1023.0
20260508171520 57 248 0.0 5.2 0.00 0.00 0.00 52 1023.0
20260508170020 57 244 1.7 4.3 0.00 0.00 0.00 53 1023.0
20260508164520 58 273 1.7 4.3 0.00 0.00 0.00 56 1022.9
20260508163032 58 292 1.7 3.5 0.00 0.00 0.00 61 1023.0
20260508161527 58 256 0.0 5.2 0.00 0.00 0.00 59 1022.9
20260508160017 58 261 0.9 7.8 0.00 0.00 0.00 58 1022.9
20260508154518 59 255 1.7 6.1 0.00 0.00 0.00 46 1023.0
20260508153020 59 245 3.5 8.7 0.00 0.00 0.00 44 1023.1
20260508151516 61 238 5.2 8.7 0.00 0.00 0.00 44 1023.0
20260508150022 60 231 1.7 5.2 0.00 0.00 0.00 46 1023.0
20260508144515 60 199 5.2 7.8 0.00 0.00 0.00 40 1023.1
20260508143022 61 237 4.3 7.8 0.00 0.00 0.00 37 1023.1
20260508141514 61 256 4.3 8.7 0.00 0.00 0.00 37 1023.3
20260508140045 61 244 5.2 10.4 0.00 0.00 0.00 35 1023.2
20260508134556 62 215 5.2 9.6 0.00 0.00 0.00 34 1023.3
20260508133045 61 243 7.8 12.2 0.00 0.00 0.00 32 1023.3
20260508131544 61 192 6.1 13.0 0.00 0.00 0.00 34 1023.4
20260508130043 60 222 7.8 13.9 0.00 0.00 0.00 38 1023.4
20260508124542 60 242 6.1 11.3 0.00 0.00 0.00 40 1023.5
20260508123051 60 275 6.1 13.0 0.00 0.00 0.00 46 1023.6
20260508121544 60 190 7.0 13.0 0.00 0.00 0.00 48 1023.6
20260508120044 60 184 7.0 11.3 0.00 0.00 0.00 44 1023.5
20260508114548 63 213 4.3 10.4 0.00 0.00 0.00 45 1023.4
20260508113040 61 193 7.8 13.9 0.00 0.00 0.00 44 1023.3
20260508111542 62 221 7.0 12.2 0.00 0.00 0.00 45 1023.2
20260508110035 63 243 3.5 13.0 0.00 0.00 0.00 46 1023.1
20260508104535 63 227 7.0 11.3 0.00 0.00 0.00 39 1023.1
20260508103038 63 246 3.5 8.7 0.00 0.00 0.00 41 1023.0
20260508101532 63 182 4.3 7.8 0.00 0.00 0.00 36 1023.0
20260508100027 63 204 5.2 9.6 0.00 0.00 0.00 35 1023.0
20260508094523 61 252 3.5 9.6 0.00 0.00 0.00 40 1022.9
20260508093022 63 234 3.5 7.8 0.00 0.00 0.00 32 1022.9
20260508091518 63 48 2.6 6.1 0.00 0.00 0.00 27 1022.8
20260508090020 62 82 1.7 6.1 0.00 0.00 0.00 27 1022.8
20260508084512 61 59 3.5 7.0 0.00 0.00 0.00 28 1022.8
20260508083009 61 52 0.9 4.3 0.00 0.00 0.00 28 1022.8
20260508081513 59 52 1.7 5.2 0.00 0.00 0.00 29 1022.7
20260508080002 60 59 2.6 5.2 0.00 0.00 0.00 29 1022.8
20260508074558 59 30 2.6 5.2 0.00 0.00 0.00 30 1022.7
20260508073055 57 50 1.7 7.0 0.00 0.00 0.00 30 1022.7
20260508071556 56 74 2.6 7.8 0.00 0.00 0.00 31 1022.6
20260508070046 54 52 2.6 7.8 0.00 0.00 0.00 33 1022.6
20260508064542 53 52 2.6 6.1 0.00 0.00 0.00 34 1022.5
20260508063052 51 65 3.5 7.8 0.00 0.00 0.00 35 1022.5
20260508061540 49 47 3.5 5.2 0.00 0.00 0.00 41 1022.4
20260508060035 48 38 1.7 3.5 0.00 0.00 0.00 46 1022.4
20260508054529 46 50 1.7 3.5 0.00 0.00 0.00 48 1022.2
20260508053025 45 59 1.7 3.5 0.00 0.00 0.00 47 1022.3
20260508051522 43 75 0.9 3.5 0.00 0.00 0.00 50 1022.1
20260508050018 41 46 0.0 2.6 0.00 0.00 0.00 55 1022.0
20260508044515 40 45 1.7 3.5 0.00 0.00 0.00 57 1021.9
20260508043012 39 44 0.9 3.5 0.00 0.00 0.00 59 1021.8
20260508041510 36 53 0.9 1.7 0.00 0.00 0.00 69 1021.6
20260508040009 35 32 0.9 2.6 0.00 0.00 0.00 70 1021.5
20260508034508 34 56 0.0 0.0 0.00 0.00 0.00 73 1021.4
20260508033006 34 56 0.0 0.0 0.00 0.00 0.00 72 1021.4
20260508031504 34 56 0.0 0.0 0.00 0.00 0.00 72 1021.3
20260508030005 34 56 0.0 0.9 0.00 0.00 0.00 73 1021.2
20260508024600 35 39 0.9 1.7 0.00 0.00 0.00 72 1021.1
20260508023100 35 39 0.0 0.9 0.00 0.00 0.00 72 1021.1
20260508021559 35 39 0.0 1.7 0.00 0.00 0.00 73 1021.1
20260508020105 35 39 0.9 1.7 0.00 0.00 0.00 75 1021.1
20260508014559 35 39 0.9 1.7 0.00 0.00 0.00 75 1021.2
20260508013055 34 39 0.0 1.7 0.00 0.00 0.00 75 1021.0
20260508011552 36 26 0.9 2.6 0.00 0.00 0.00 72 1020.9
20260508010050 36 4 0.0 0.9 0.00 0.00 0.00 72 1020.9
20260508004548 36 4 0.0 0.9 0.00 0.00 0.00 71 1020.7
20260508003046 36 4 0.0 0.9 0.00 0.00 0.00 74 1020.5
20260508001543 36 4 0.0 0.9 0.00 0.00 0.00 73 1020.5
20260508000045 36 4 0.0 0.0 0.00 0.00 0.00 72 1020.4
20260507234542 36 4 0.0 0.0 0.00 0.00 0.00 73 1020.3
20260507233044 36 4 0.0 1.7 0.00 0.00 0.00 73 1020.3
20260507231539 37 4 0.0 1.7 0.00 0.00 0.00 70 1020.2
20260507230041 37 4 0.0 0.9 0.00 0.00 0.00 68 1020.0
20260507224540 38 4 0.0 0.0 0.00 0.00 0.00 68 1020.1
20260507223033 38 4 0.0 0.0 0.00 0.00 0.00 69 1020.1